星链-6064 (STARLINK-6064 )

导读

STARLINK-6064是美国太空探索技术公司(SpaceX)星链互联网卫星星座中的一员,于北京时间2023年5月31日发射入轨。星链计划旨在构建全球卫星互联网,该卫星承担为地面提供低时延高速网络服务的任务,运行在近地轨道,目前已正常在轨工作近两年,是星链全球组网进程里的组成单元。

Basic Information
目录编号:
56805
目录名称:
STARLINK-6064
国际标识:
2023-078AQ
轨道中心:
EARTH
卫星名称:
星链-6064
卫星全名:
星链-6064 (STARLINK-6064 )
卫星状态:
在轨 (已飞行1193 天)
发射日期:
2023-05-31 UTC
国别 :
美国 (US)
星等 :
--
Orbit Information
数据来源 国际轨道数据 AOE轨道数据
星历时间 2026-09-04T17:35:13+0800
14小时前
查看轨道信息
2026-09-01T12:00:00+0800
3天前
查看轨道信息
半长轴 6950.188km 6950.181km
偏心率 0.0003604 0.0002007
轨道倾角 69.999° 69.995°
近地点辐角 268.915° 273.929°
升交点赤经 233.815° 241.965°
平近点角 91.160° 293.539°
近地点 569.546km 570.649km
远地点 574.556km 573.439km
周期 96.107分钟 96.107分钟
每日圈数 14.983318 14.98334
Detailed Information
固有亮度:
5
最大亮度:
2.5
卫星平台:
Starlink v1.5
覆盖范围:
全球
运营商:
太空探索技术公司
运营商所在国:
美国
制造商(研发单位):
太空探索技术公司
制造商所在国:
美国
使用方式:
暂无
Satellite Introduction
星链(Starlink)计划是由太空探索技术公司(SpaceX)提出的一个巨型低轨卫星互联网星座项目,计划在2019年至2024年间在太空搭建由约1.2万颗卫星组成的“星链”网络,其中1584颗将部署在地球上空550千米处的近地轨道,并从2020年开始工作。该卫星仍在工作。
2D Orbit Map
3D Orbit Map
Orbit Altitude Analysis Chart
Orbit Inclination Analysis Chart
Orbit Comprehensive Analysis Chart
View Comprehensive Chart
Conjunction Data List
Event ID Objects TCA Miss Dist (km) Collision Risk Probability Collision Risk Index (CRI) Action
CDM_260906-231004-283105-680522
2026-09-06T
23:10:43+0000
0.969 km
远距离
3.065985E-5 中风险 0.65
CDM_260906-231104-435005-680522
2026-09-06T
23:11:37+0000
0.903 km
远距离
2.175754E-5 中风险 0.62
CDM_260906-111602-354605-680522
2026-09-06T
11:16:26+0000
1.084 km
极远距离
1.995187E-5 中风险 0.61